Time,TemperatureF,DewpointF,PressureIn,WindDirection,WindDirectionDegrees,WindSpeedMPH,WindSpeedGustMPH,Humidity,HourlyPrecipIn,Conditions,Clouds,dailyrainin,SoftwareType,DateUTC
2013-06-12 00:00:00,70.8,66.4,29.76,NW,313,0.0,0.0,86,0.00,,,0.27,Wunderground v.1.15,2013-06-12 04:00:00,
2013-06-12 00:05:00,70.6,66.5,29.76,NW,313,0.0,1.0,87,0.00,,,0.00,Wunderground v.1.15,2013-06-12 04:05:00,
2013-06-12 00:10:00,70.3,66.6,29.76,NW,313,0.0,0.0,88,0.00,,,0.00,Wunderground v.1.15,2013-06-12 04:10:00,
2013-06-12 00:15:00,70.2,66.8,29.76,NW,313,0.0,0.0,89,0.00,,,0.00,Wunderground v.1.15,2013-06-12 04:15:00,
2013-06-12 00:20:00,70.4,67.0,29.75,NW,313,0.0,0.0,89,0.00,,,0.00,Wunderground v.1.15,2013-06-12 04:20:00,
2013-06-12 00:25:00,70.6,67.2,29.75,NW,313,0.0,0.0,89,0.00,,,0.00,Wunderground v.1.15,2013-06-12 04:25:00,
2013-06-12 00:35:00,71.0,67.3,29.75,NW,313,0.0,0.0,88,0.00,,,0.00,Wunderground v.1.15,2013-06-12 04:35:00,
2013-06-12 00:40:00,71.3,67.2,29.75,NW,313,1.0,1.0,87,0.00,,,0.00,Wunderground v.1.15,2013-06-12 04:40:00,
2013-06-12 00:46:00,71.7,67.3,29.75,NW,313,1.0,1.0,86,0.00,,,0.00,Wunderground v.1.15,2013-06-12 04:46:00,
2013-06-12 00:50:00,71.9,67.5,29.75,NW,313,0.0,0.0,86,0.00,,,0.00,Wunderground v.1.15,2013-06-12 04:50:00,
2013-06-12 00:55:00,72.0,67.2,29.75,NW,313,0.0,0.0,85,0.00,,,0.00,Wunderground v.1.15,2013-06-12 04:55:00,
2013-06-12 01:00:00,71.9,67.1,29.74,NW,313,0.0,0.0,85,0.00,,,0.00,Wunderground v.1.15,2013-06-12 05:00:00,
2013-06-12 01:10:00,71.5,66.4,29.74,NW,313,0.0,0.0,84,0.00,,,0.00,Wunderground v.1.15,2013-06-12 05:10:00,
2013-06-12 01:15:00,71.1,66.4,29.74,NW,313,0.0,1.0,85,0.00,,,0.00,Wunderground v.1.15,2013-06-12 05:15:00,
2013-06-12 01:25:00,70.2,65.5,29.74,NW,313,0.0,2.0,85,0.00,,,0.00,Wunderground v.1.15,2013-06-12 05:25:00,
2013-06-12 01:30:00,69.8,65.4,29.74,NW,313,0.0,0.0,86,0.00,,,0.00,Wunderground v.1.15,2013-06-12 05:30:00,
2013-06-12 01:35:00,69.5,65.5,29.74,NW,313,0.0,0.0,87,0.00,,,0.00,Wunderground v.1.15,2013-06-12 05:35:00,
2013-06-12 01:45:00,69.0,65.3,29.74,NW,313,0.0,0.0,88,0.00,,,0.00,Wunderground v.1.15,2013-06-12 05:45:00,
2013-06-12 01:50:00,68.8,65.1,29.74,NW,313,0.0,0.0,88,0.00,,,0.00,Wunderground v.1.15,2013-06-12 05:50:00,
2013-06-12 01:55:00,68.6,65.5,29.75,NW,313,0.0,0.0,90,0.00,,,0.00,Wunderground v.1.15,2013-06-12 05:55:00,
2013-06-12 02:05:00,68.4,65.7,29.74,NW,313,0.0,0.0,91,0.00,,,0.00,Wunderground v.1.15,2013-06-12 06:05:00,
2013-06-12 02:10:00,68.4,66.0,29.74,NW,313,0.0,0.0,92,0.00,,,0.00,Wunderground v.1.15,2013-06-12 06:10:00,
2013-06-12 02:15:00,68.2,65.8,29.74,NW,313,0.0,0.0,92,0.00,,,0.00,Wunderground v.1.15,2013-06-12 06:15:00,
2013-06-12 02:20:00,68.1,65.7,29.73,NW,313,0.0,0.0,92,0.00,,,0.00,Wunderground v.1.15,2013-06-12 06:20:00,
2013-06-12 02:30:00,67.9,65.5,29.73,NW,313,0.0,0.0,92,0.00,,,0.00,Wunderground v.1.15,2013-06-12 06:30:00,
2013-06-12 02:35:00,67.8,65.4,29.73,NW,313,0.0,0.0,92,0.00,,,0.00,Wunderground v.1.15,2013-06-12 06:35:00,
2013-06-12 02:40:00,67.8,65.4,29.73,NW,313,0.0,1.0,92,0.00,,,0.00,Wunderground v.1.15,2013-06-12 06:40:00,
2013-06-12 02:50:00,67.9,65.8,29.73,WNW,287,1.0,1.0,93,0.00,,,0.00,Wunderground v.1.15,2013-06-12 06:50:00,
2013-06-12 02:55:00,67.9,65.8,29.74,WNW,284,1.0,3.0,93,0.00,,,0.00,Wunderground v.1.15,2013-06-12 06:55:00,
2013-06-12 03:00:00,67.9,65.8,29.74,West,260,1.0,2.0,93,0.00,,,0.00,Wunderground v.1.15,2013-06-12 07:00:00,
2013-06-12 03:05:00,68.0,65.9,29.73,WSW,239,3.0,5.0,93,0.00,,,0.00,Wunderground v.1.15,2013-06-12 07:05:00,
2013-06-12 03:15:00,68.2,66.1,29.73,WSW,239,4.0,7.0,93,0.00,,,0.00,Wunderground v.1.15,2013-06-12 07:15:00,
2013-06-12 03:20:00,68.3,66.2,29.73,SW,233,4.0,4.0,93,0.00,,,0.00,Wunderground v.1.15,2013-06-12 07:20:00,
2013-06-12 03:25:00,68.5,66.4,29.72,WSW,244,4.0,4.0,93,0.00,,,0.00,Wunderground v.1.15,2013-06-12 07:25:00,
2013-06-12 03:30:00,68.7,66.6,29.72,WSW,244,1.0,1.0,93,0.00,,,0.00,Wunderground v.1.15,2013-06-12 07:30:00,
2013-06-12 03:40:00,69.0,66.6,29.72,WSW,244,0.0,1.0,92,0.00,,,0.00,Wunderground v.1.15,2013-06-12 07:40:00,
2013-06-12 03:45:00,69.3,66.9,29.72,WSW,244,1.0,1.0,92,0.00,,,0.00,Wunderground v.1.15,2013-06-12 07:45:00,
2013-06-12 03:55:00,70.3,66.9,29.72,WSW,244,1.0,1.0,89,0.00,,,0.00,Wunderground v.1.15,2013-06-12 07:55:00,
2013-06-12 04:01:00,70.7,67.0,29.72,WSW,244,0.0,0.0,88,0.00,,,0.00,Wunderground v.1.15,2013-06-12 08:01:00,
2013-06-12 04:10:00,71.3,67.2,29.72,WSW,244,0.0,0.0,87,0.00,,,0.00,Wunderground v.1.15,2013-06-12 08:10:00,
2013-06-12 04:15:00,71.4,67.3,29.72,WSW,244,0.0,0.0,87,0.00,,,0.00,Wunderground v.1.15,2013-06-12 08:15:00,
2013-06-12 04:20:00,71.5,67.1,29.72,WSW,244,0.0,0.0,86,0.00,,,0.00,Wunderground v.1.15,2013-06-12 08:20:00,
2013-06-12 04:25:00,71.6,67.2,29.72,WSW,244,1.0,3.0,86,0.00,,,0.00,Wunderground v.1.15,2013-06-12 08:25:00,
2013-06-12 04:31:00,71.6,67.5,29.72,SW,234,2.0,3.0,87,0.00,,,0.00,Wunderground v.1.15,2013-06-12 08:31:00,
2013-06-12 04:40:00,71.5,67.1,29.72,SW,235,2.0,2.0,86,0.00,,,0.00,Wunderground v.1.15,2013-06-12 08:40:00,
2013-06-12 04:45:00,71.4,67.0,29.72,SW,229,1.0,5.0,86,0.00,,,0.00,Wunderground v.1.15,2013-06-12 08:45:00,
2013-06-12 04:55:00,71.5,67.4,29.71,West,262,3.0,5.0,87,0.00,,,0.00,Wunderground v.1.15,2013-06-12 08:55:00,
2013-06-12 05:01:00,71.9,67.8,29.71,WSW,257,3.0,3.0,87,0.00,,,0.00,Wunderground v.1.15,2013-06-12 09:01:00,
2013-06-12 05:10:00,72.4,68.0,29.72,West,264,2.0,4.0,86,0.00,,,0.00,Wunderground v.1.15,2013-06-12 09:10:00,
2013-06-12 05:15:00,72.7,68.3,29.72,West,272,2.0,4.0,86,0.00,,,0.00,Wunderground v.1.15,2013-06-12 09:15:00,
2013-06-12 05:25:00,73.0,68.2,29.72,West,261,2.0,2.0,85,0.00,,,0.00,Wunderground v.1.15,2013-06-12 09:25:00,
2013-06-12 05:31:00,73.0,68.2,29.72,West,260,1.0,1.0,85,0.00,,,0.00,Wunderground v.1.15,2013-06-12 09:31:00,
2013-06-12 05:40:00,73.0,68.2,29.72,WSW,252,4.0,4.0,85,0.00,,,0.00,Wunderground v.1.15,2013-06-12 09:40:00,
2013-06-12 05:45:00,73.0,68.2,29.72,West,264,3.0,5.0,85,0.00,,,0.00,Wunderground v.1.15,2013-06-12 09:45:00,
2013-06-12 05:55:00,73.1,68.3,29.72,WNW,301,4.0,7.0,85,0.00,,,0.00,Wunderground v.1.15,2013-06-12 09:55:00,
2013-06-12 06:00:00,73.3,68.5,29.72,West,280,3.0,3.0,85,0.00,,,0.00,Wunderground v.1.15,2013-06-12 10:00:00,
2013-06-12 06:05:00,73.5,68.4,29.72,West,259,3.0,3.0,84,0.00,,,0.00,Wunderground v.1.15,2013-06-12 10:05:00,
2013-06-12 06:10:00,73.7,68.6,29.72,West,264,2.0,2.0,84,0.00,,,0.00,Wunderground v.1.15,2013-06-12 10:10:00,
2013-06-12 06:20:00,74.0,68.5,29.72,West,269,2.0,2.0,83,0.00,,,0.00,Wunderground v.1.15,2013-06-12 10:20:00,
2013-06-12 06:25:00,74.0,68.5,29.72,West,280,2.0,2.0,83,0.00,,,0.00,Wunderground v.1.15,2013-06-12 10:25:00,
2013-06-12 06:30:00,74.0,68.5,29.72,West,274,1.0,1.0,83,0.00,,,0.00,Wunderground v.1.15,2013-06-12 10:30:00,
2013-06-12 06:40:00,74.0,68.5,29.73,WNW,284,2.0,2.0,83,0.00,,,0.00,Wunderground v.1.15,2013-06-12 10:40:00,
2013-06-12 06:45:00,74.1,69.0,29.73,West,270,1.0,3.0,84,0.00,,,0.00,Wunderground v.1.15,2013-06-12 10:45:00,
2013-06-12 06:55:00,74.1,69.0,29.73,NW,304,1.0,2.0,84,0.00,,,0.00,Wunderground v.1.15,2013-06-12 10:55:00,
2013-06-12 07:00:00,74.1,69.0,29.74,NW,309,0.0,0.0,84,0.00,,,0.00,Wunderground v.1.15,2013-06-12 11:00:00,
2013-06-12 07:10:00,74.2,69.1,29.74,West,260,0.0,0.0,84,0.00,,,0.00,Wunderground v.1.15,2013-06-12 11:10:00,
2013-06-12 07:15:00,74.4,69.2,29.74,West,264,1.0,1.0,84,0.00,,,0.00,Wunderground v.1.15,2013-06-12 11:15:00,
2013-06-12 07:25:00,75.1,69.6,29.74,West,264,0.0,0.0,83,0.00,,,0.00,Wunderground v.1.15,2013-06-12 11:25:00,
2013-06-12 07:35:00,75.7,70.2,29.75,West,264,0.0,0.0,83,0.00,,,0.00,Wunderground v.1.15,2013-06-12 11:35:00,
2013-06-12 07:40:00,76.0,70.5,29.74,West,264,0.0,1.0,83,0.00,,,0.00,Wunderground v.1.15,2013-06-12 11:40:00,
2013-06-12 07:46:00,76.3,70.8,29.74,West,264,0.0,0.0,83,0.00,,,0.00,Wunderground v.1.15,2013-06-12 11:46:00,
2013-06-12 07:55:00,76.9,71.3,29.74,West,261,0.0,0.0,83,0.00,,,0.00,Wunderground v.1.15,2013-06-12 11:55:00,
2013-06-12 08:00:00,77.2,70.9,29.74,West,259,0.0,1.0,81,0.00,,,0.00,Wunderground v.1.15,2013-06-12 12:00:00,
2013-06-12 08:10:00,77.6,70.9,29.75,WNW,282,2.0,2.0,80,0.00,,,0.00,Wunderground v.1.15,2013-06-12 12:10:00,
2013-06-12 08:20:00,78.1,71.4,29.75,West,268,1.0,1.0,80,0.00,,,0.00,Wunderground v.1.15,2013-06-12 12:20:00,
2013-06-12 08:25:00,78.4,71.7,29.76,WSW,238,2.0,2.0,80,0.00,,,0.00,Wunderground v.1.15,2013-06-12 12:25:00,
2013-06-12 08:31:00,78.7,72.0,29.75,SW,236,1.0,1.0,80,0.00,,,0.00,Wunderground v.1.15,2013-06-12 12:31:00,
2013-06-12 08:40:00,79.3,72.6,29.75,WSW,245,2.0,4.0,80,0.00,,,0.00,Wunderground v.1.15,2013-06-12 12:40:00,
2013-06-12 08:45:00,79.6,72.9,29.75,SW,230,4.0,6.0,80,0.00,,,0.00,Wunderground v.1.15,2013-06-12 12:45:00,
2013-06-12 08:50:00,80.0,72.5,29.75,WSW,241,4.0,4.0,78,0.00,,,0.00,Wunderground v.1.15,2013-06-12 12:50:00,
2013-06-12 09:00:00,80.9,73.4,29.75,NW,314,4.0,4.0,78,0.00,,,0.00,Wunderground v.1.15,2013-06-12 13:00:00,
2013-06-12 09:10:00,80.9,72.2,29.76,WSW,252,3.0,4.0,75,0.00,,,0.00,Wunderground v.1.15,2013-06-12 13:10:00,
2013-06-12 09:15:00,80.7,72.8,29.76,WSW,245,2.0,4.0,77,0.00,,,0.00,Wunderground v.1.15,2013-06-12 13:15:00,
2013-06-12 09:25:00,80.3,72.8,29.76,WSW,245,1.0,2.0,78,0.00,,,0.00,Wunderground v.1.15,2013-06-12 13:25:00,
2013-06-12 09:30:00,79.9,72.0,29.76,WSW,245,1.0,1.0,77,0.00,,,0.00,Wunderground v.1.15,2013-06-12 13:30:00,
2013-06-12 09:35:00,79.7,72.2,29.76,West,276,1.0,3.0,78,0.00,,,0.00,Wunderground v.1.15,2013-06-12 13:35:00,
2013-06-12 09:40:00,79.6,72.5,29.76,West,279,2.0,2.0,79,0.00,,,0.00,Wunderground v.1.15,2013-06-12 13:40:00,
2013-06-12 09:50:00,79.5,72.4,29.76,West,270,2.0,4.0,79,0.00,,,0.00,Wunderground v.1.15,2013-06-12 13:50:00,
2013-06-12 09:55:00,79.6,72.1,29.76,WNW,286,2.0,4.0,78,0.00,,,0.00,Wunderground v.1.15,2013-06-12 13:55:00,
2013-06-12 10:00:00,80.0,72.5,29.76,NW,322,4.0,6.0,78,0.00,,,0.00,Wunderground v.1.15,2013-06-12 14:00:00,
2013-06-12 10:05:00,80.3,72.4,29.76,WSW,253,5.0,6.0,77,0.00,,,0.00,Wunderground v.1.15,2013-06-12 14:05:00,
2013-06-12 10:15:00,81.4,73.5,29.75,NW,310,5.0,5.0,77,0.00,,,0.00,Wunderground v.1.15,2013-06-12 14:15:00,
2013-06-12 10:20:00,82.0,73.3,29.75,NW,310,4.0,11.0,75,0.00,,,0.00,Wunderground v.1.15,2013-06-12 14:20:00,
2013-06-12 10:25:00,82.5,72.1,29.76,NNW,335,6.0,11.0,71,0.00,,,0.00,Wunderground v.1.15,2013-06-12 14:25:00,
2013-06-12 10:35:00,82.6,72.2,29.76,NNW,334,6.0,7.0,71,0.00,,,0.00,Wunderground v.1.15,2013-06-12 14:35:00,
2013-06-12 10:45:00,82.3,71.5,29.76,North,5,6.0,10.0,70,0.00,,,0.00,Wunderground v.1.15,2013-06-12 14:45:00,
2013-06-12 10:55:00,81.9,72.0,29.76,NNW,348,5.0,5.0,72,0.00,,,0.00,Wunderground v.1.15,2013-06-12 14:55:00,
2013-06-12 11:01:00,81.6,72.1,29.76,NW,320,4.0,4.0,73,0.00,,,0.00,Wunderground v.1.15,2013-06-12 15:01:00,
2013-06-12 11:10:00,81.4,71.9,29.77,NW,321,3.0,3.0,73,0.00,,,0.00,Wunderground v.1.15,2013-06-12 15:10:00,
2013-06-12 11:15:00,81.5,72.0,29.78,NW,320,1.0,3.0,73,0.00,,,0.00,Wunderground v.1.15,2013-06-12 15:15:00,
2013-06-12 11:25:00,81.8,72.3,29.78,NW,322,0.0,1.0,73,0.00,,,0.00,Wunderground v.1.15,2013-06-12 15:25:00,
2013-06-12 11:30:00,82.1,73.4,29.78,WNW,282,1.0,3.0,75,0.00,,,0.00,Wunderground v.1.15,2013-06-12 15:30:00,
2013-06-12 11:35:00,82.3,73.6,29.78,West,264,2.0,3.0,75,0.00,,,0.00,Wunderground v.1.15,2013-06-12 15:35:00,
2013-06-12 11:45:00,82.5,73.4,29.78,West,259,2.0,2.0,74,0.00,,,0.00,Wunderground v.1.15,2013-06-12 15:45:00,
2013-06-12 11:55:00,82.6,72.7,29.78,West,259,1.0,1.0,72,0.00,,,0.00,Wunderground v.1.15,2013-06-12 15:55:00,
2013-06-12 12:00:00,82.6,73.1,29.79,West,259,1.0,1.0,73,0.00,,,0.00,Wunderground v.1.15,2013-06-12 16:00:00,
2013-06-12 12:10:00,82.6,72.7,29.78,NW,325,1.0,1.0,72,0.00,,,0.00,Wunderground v.1.15,2013-06-12 16:10:00,
2013-06-12 12:15:00,82.7,71.9,29.79,North,352,1.0,1.0,70,0.00,,,0.00,Wunderground v.1.15,2013-06-12 16:15:00,
2013-06-12 12:25:00,83.7,73.7,29.78,NNW,348,3.0,4.0,72,0.00,,,0.00,Wunderground v.1.15,2013-06-12 16:25:00,
2013-06-12 12:31:00,84.3,73.4,29.78,NNW,327,4.0,7.0,70,0.00,,,0.00,Wunderground v.1.15,2013-06-12 16:31:00,
2013-06-12 12:40:00,84.6,72.9,29.78,NNW,347,7.0,7.0,68,0.00,,,0.00,Wunderground v.1.15,2013-06-12 16:40:00,
2013-06-12 12:45:00,84.6,74.2,29.78,NNE,24,6.0,7.0,71,0.00,,,0.00,Wunderground v.1.15,2013-06-12 16:45:00,
2013-06-12 12:50:00,84.4,73.5,29.78,NW,317,4.0,4.0,70,0.00,,,0.00,Wunderground v.1.15,2013-06-12 16:50:00,
2013-06-12 12:55:00,84.3,73.4,29.78,WNW,302,2.0,4.0,70,0.00,,,0.00,Wunderground v.1.15,2013-06-12 16:55:00,
2013-06-12 13:05:00,84.6,73.3,29.78,NNW,341,3.0,7.0,69,0.00,,,0.00,Wunderground v.1.15,2013-06-12 17:05:00,
2013-06-12 13:10:00,84.7,74.7,29.78,NW,316,4.0,4.0,72,0.00,,,0.00,Wunderground v.1.15,2013-06-12 17:10:00,
2013-06-12 13:20:00,85.3,74.4,29.78,West,271,3.0,8.0,70,0.00,,,0.00,Wunderground v.1.15,2013-06-12 17:20:00,
2013-06-12 13:25:00,85.4,74.1,29.77,NNW,333,4.0,8.0,69,0.00,,,0.00,Wunderground v.1.15,2013-06-12 17:25:00,
2013-06-12 13:30:00,85.2,73.9,29.77,WNW,303,3.0,3.0,69,0.00,,,0.00,Wunderground v.1.15,2013-06-12 17:30:00,
2013-06-12 13:40:00,85.2,74.7,29.77,West,270,2.0,2.0,71,0.00,,,0.00,Wunderground v.1.15,2013-06-12 17:40:00,
2013-06-12 13:45:00,85.4,74.9,29.77,West,270,2.0,2.0,71,0.00,,,0.00,Wunderground v.1.15,2013-06-12 17:45:00,
2013-06-12 13:55:00,85.8,74.4,29.77,NNW,347,3.0,8.0,69,0.00,,,0.00,Wunderground v.1.15,2013-06-12 17:55:00,
2013-06-12 14:01:00,86.0,73.8,29.77,NNW,332,5.0,5.0,67,0.00,,,0.00,Wunderground v.1.15,2013-06-12 18:01:00,
2013-06-12 14:10:00,86.4,73.2,29.76,North,353,5.0,5.0,65,0.00,,,0.00,Wunderground v.1.15,2013-06-12 18:10:00,
2013-06-12 14:15:00,86.5,73.8,29.76,NW,311,4.0,5.0,66,0.00,,,0.00,Wunderground v.1.15,2013-06-12 18:15:00,
2013-06-12 14:25:00,86.9,72.8,29.76,WNW,284,3.0,5.0,63,0.00,,,0.00,Wunderground v.1.15,2013-06-12 18:25:00,
2013-06-12 14:31:00,87.1,73.9,29.76,NW,314,4.0,4.0,65,0.00,,,0.00,Wunderground v.1.15,2013-06-12 18:31:00,
2013-06-12 14:40:00,87.5,72.4,29.75,West,259,2.0,4.0,61,0.00,,,0.00,Wunderground v.1.15,2013-06-12 18:40:00,
2013-06-12 14:45:00,88.0,73.3,29.75,WSW,245,4.0,6.0,62,0.00,,,0.00,Wunderground v.1.15,2013-06-12 18:45:00,
2013-06-12 14:55:00,89.0,72.8,29.75,West,264,4.0,4.0,59,0.00,,,0.00,Wunderground v.1.15,2013-06-12 18:55:00,
2013-06-12 15:00:00,89.5,74.8,29.74,WSW,237,3.0,3.0,62,0.00,,,0.00,Wunderground v.1.15,2013-06-12 19:00:00,
2013-06-12 15:05:00,89.9,74.6,29.74,WSW,249,4.0,4.0,61,0.00,,,0.00,Wunderground v.1.15,2013-06-12 19:05:00,
2013-06-12 15:15:00,89.6,75.8,29.74,WSW,248,5.0,5.0,64,0.00,,,0.00,Wunderground v.1.15,2013-06-12 19:15:00,
2013-06-12 15:25:00,88.8,75.0,29.74,SW,230,5.0,5.0,64,0.00,,,0.00,Wunderground v.1.15,2013-06-12 19:25:00,
2013-06-12 15:30:00,88.4,75.1,29.74,SW,235,5.0,5.0,65,0.00,,,0.00,Wunderground v.1.15,2013-06-12 19:30:00,
2013-06-12 15:35:00,87.9,74.7,29.74,WSW,258,4.0,5.0,65,0.00,,,0.00,Wunderground v.1.15,2013-06-12 19:35:00,
2013-06-12 15:40:00,87.4,74.6,29.74,WSW,255,3.0,5.0,66,0.00,,,0.00,Wunderground v.1.15,2013-06-12 19:40:00,
2013-06-12 15:46:00,87.1,74.8,29.74,WNW,292,4.0,5.0,67,0.00,,,0.00,Wunderground v.1.15,2013-06-12 19:46:00,
2013-06-12 15:55:00,87.3,74.5,29.73,West,277,7.0,7.0,66,0.00,,,0.00,Wunderground v.1.15,2013-06-12 19:55:00,
2013-06-12 16:00:00,87.6,74.8,29.73,NW,309,7.0,9.0,66,0.00,,,0.00,Wunderground v.1.15,2013-06-12 20:00:00,
2013-06-12 16:05:00,87.9,73.7,29.73,NW,322,8.0,9.0,63,0.00,,,0.00,Wunderground v.1.15,2013-06-12 20:05:00,
2013-06-12 16:15:00,88.6,75.3,29.72,West,280,7.0,11.0,65,0.00,,,0.00,Wunderground v.1.15,2013-06-12 20:15:00,
2013-06-12 16:25:00,89.2,75.9,29.72,WSW,253,5.0,8.0,65,0.00,,,0.00,Wunderground v.1.15,2013-06-12 20:25:00,
2013-06-12 16:35:00,89.9,75.1,29.71,West,259,4.0,7.0,62,0.00,,,0.00,Wunderground v.1.15,2013-06-12 20:35:00,
2013-06-12 16:40:00,90.2,75.9,29.71,West,261,5.0,6.0,63,0.00,,,0.00,Wunderground v.1.15,2013-06-12 20:40:00,
2013-06-12 16:46:00,90.4,76.1,29.71,NW,308,5.0,6.0,63,0.00,,,0.00,Wunderground v.1.15,2013-06-12 20:46:00,
2013-06-12 16:55:00,90.7,76.4,29.71,WSW,239,7.0,7.0,63,0.00,,,0.00,Wunderground v.1.15,2013-06-12 20:55:00,
2013-06-12 17:00:00,90.8,77.4,29.71,WSW,255,8.0,8.0,65,0.00,,,0.00,Wunderground v.1.15,2013-06-12 21:00:00,
2013-06-12 17:05:00,90.9,76.6,29.70,WSW,249,7.0,8.0,63,0.00,,,0.00,Wunderground v.1.15,2013-06-12 21:05:00,
2013-06-12 17:10:00,90.8,76.5,29.70,WSW,243,7.0,7.0,63,0.00,,,0.00,Wunderground v.1.15,2013-06-12 21:10:00,
2013-06-12 17:15:00,90.7,76.4,29.70,WNW,293,6.0,7.0,63,0.00,,,0.00,Wunderground v.1.15,2013-06-12 21:15:00,
2013-06-12 17:25:00,90.6,77.7,29.70,WSW,253,6.0,11.0,66,0.00,,,0.00,Wunderground v.1.15,2013-06-12 21:25:00,
2013-06-12 17:35:00,90.2,76.4,29.70,WSW,245,5.0,10.0,64,0.00,,,0.00,Wunderground v.1.15,2013-06-12 21:35:00,
2013-06-12 17:40:00,89.9,76.6,29.70,SW,230,7.0,11.0,65,0.00,,,0.00,Wunderground v.1.15,2013-06-12 21:40:00,
2013-06-12 17:45:00,89.7,76.8,29.70,SW,224,8.0,11.0,66,0.00,,,0.00,Wunderground v.1.15,2013-06-12 21:45:00,
2013-06-12 17:55:00,89.3,76.0,29.70,WSW,238,6.0,8.0,65,0.00,,,0.00,Wunderground v.1.15,2013-06-12 21:55:00,
2013-06-12 18:01:00,89.3,76.0,29.70,WSW,247,6.0,6.0,65,0.00,,,0.00,Wunderground v.1.15,2013-06-12 22:01:00,
2013-06-12 18:10:00,89.2,76.4,29.70,SW,233,4.0,6.0,66,0.00,,,0.00,Wunderground v.1.15,2013-06-12 22:10:00,
2013-06-12 18:15:00,89.0,75.7,29.70,WSW,256,5.0,6.0,65,0.00,,,0.00,Wunderground v.1.15,2013-06-12 22:15:00,
2013-06-12 18:25:00,88.8,76.0,29.70,SW,230,3.0,4.0,66,0.00,,,0.00,Wunderground v.1.15,2013-06-12 22:25:00,
2013-06-12 18:35:00,88.4,75.6,29.70,West,259,5.0,6.0,66,0.00,,,0.00,Wunderground v.1.15,2013-06-12 22:35:00,
2013-06-12 18:40:00,88.1,76.2,29.70,WSW,243,5.0,5.0,68,0.00,,,0.00,Wunderground v.1.15,2013-06-12 22:40:00,
2013-06-12 18:45:00,87.9,76.5,29.70,WSW,247,4.0,5.0,69,0.00,,,0.00,Wunderground v.1.15,2013-06-12 22:45:00,
2013-06-12 18:55:00,87.8,77.2,29.69,SW,229,4.0,4.0,71,0.00,,,0.00,Wunderground v.1.15,2013-06-12 22:55:00,
2013-06-12 19:00:00,87.8,76.4,29.69,WSW,240,5.0,6.0,69,0.00,,,0.00,Wunderground v.1.15,2013-06-12 23:00:00,
2013-06-12 19:05:00,87.6,76.6,29.69,SW,228,5.0,10.0,70,0.00,,,0.00,Wunderground v.1.15,2013-06-12 23:05:00,
2013-06-12 19:10:00,87.4,76.0,29.69,WSW,241,5.0,5.0,69,0.00,,,0.00,Wunderground v.1.15,2013-06-12 23:10:00,
2013-06-12 19:16:00,87.3,76.3,29.69,WSW,237,5.0,5.0,70,0.00,,,0.00,Wunderground v.1.15,2013-06-12 23:16:00,
2013-06-12 19:25:00,87.0,76.9,29.69,WSW,252,5.0,7.0,72,0.00,,,0.00,Wunderground v.1.15,2013-06-12 23:25:00,
2013-06-12 19:30:00,86.8,76.7,29.69,WSW,254,4.0,4.0,72,0.00,,,0.00,Wunderground v.1.15,2013-06-12 23:30:00,
2013-06-12 19:40:00,86.2,76.5,29.69,WSW,243,3.0,4.0,73,0.00,,,0.00,Wunderground v.1.15,2013-06-12 23:40:00,
2013-06-12 19:50:00,85.6,75.5,29.69,WSW,246,3.0,3.0,72,0.00,,,0.00,Wunderground v.1.15,2013-06-12 23:50:00,
2013-06-12 19:55:00,85.4,75.8,29.70,WNW,286,3.0,3.0,73,0.00,,,0.00,Wunderground v.1.15,2013-06-12 23:55:00,
2013-06-12 20:00:00,85.0,75.0,29.69,West,259,2.0,2.0,72,0.00,,,0.00,Wunderground v.1.15,2013-06-13 00:00:00,
2013-06-12 20:10:00,84.2,74.2,29.69,West,275,3.0,4.0,72,0.00,,,0.00,Wunderground v.1.15,2013-06-13 00:10:00,
2013-06-12 20:15:00,83.9,74.3,29.69,West,279,4.0,5.0,73,0.00,,,0.00,Wunderground v.1.15,2013-06-13 00:15:00,
2013-06-12 20:20:00,83.6,74.0,29.68,West,277,4.0,4.0,73,0.00,,,0.00,Wunderground v.1.15,2013-06-13 00:20:00,
2013-06-12 20:25:00,83.3,73.7,29.69,NW,319,4.0,4.0,73,0.00,,,0.00,Wunderground v.1.15,2013-06-13 00:25:00,
2013-06-12 20:35:00,82.8,73.3,29.69,West,273,3.0,3.0,73,0.00,,,0.00,Wunderground v.1.15,2013-06-13 00:35:00,
2013-06-12 20:40:00,82.6,73.5,29.68,NW,306,2.0,2.0,74,0.00,,,0.00,Wunderground v.1.15,2013-06-13 00:40:00,
2013-06-12 20:45:00,82.2,73.5,29.69,WNW,297,2.0,3.0,75,0.00,,,0.00,Wunderground v.1.15,2013-06-13 00:45:00,
2013-06-12 20:55:00,81.3,73.4,29.69,WNW,303,1.0,2.0,77,0.00,,,0.00,Wunderground v.1.15,2013-06-13 00:55:00,
2013-06-12 21:01:00,81.0,73.5,29.69,WNW,303,2.0,3.0,78,0.00,,,0.00,Wunderground v.1.15,2013-06-13 01:01:00,
2013-06-12 21:10:00,80.4,73.3,29.69,WNW,303,0.0,0.0,79,0.00,,,0.00,Wunderground v.1.15,2013-06-13 01:10:00,
2013-06-12 21:15:00,80.2,73.1,29.70,WNW,303,0.0,0.0,79,0.00,,,0.00,Wunderground v.1.15,2013-06-13 01:15:00,
2013-06-12 21:25:00,79.6,72.9,29.70,WNW,303,0.0,0.0,80,0.00,,,0.00,Wunderground v.1.15,2013-06-13 01:25:00,
2013-06-12 21:31:00,79.4,72.7,29.70,WNW,303,0.0,0.0,80,0.00,,,0.00,Wunderground v.1.15,2013-06-13 01:31:00,
2013-06-12 21:40:00,79.0,72.3,29.70,WNW,297,1.0,1.0,80,0.00,,,0.00,Wunderground v.1.15,2013-06-13 01:40:00,
2013-06-12 21:45:00,78.9,72.2,29.70,WNW,287,1.0,1.0,80,0.00,,,0.00,Wunderground v.1.15,2013-06-13 01:45:00,
2013-06-12 21:55:00,78.8,72.1,29.71,WNW,286,2.0,4.0,80,0.00,,,0.00,Wunderground v.1.15,2013-06-13 01:55:00,
2013-06-12 22:01:00,78.7,72.0,29.71,NW,305,2.0,3.0,80,0.00,,,0.00,Wunderground v.1.15,2013-06-13 02:01:00,
2013-06-12 22:10:00,78.6,71.9,29.71,WNW,284,1.0,1.0,80,0.00,,,0.00,Wunderground v.1.15,2013-06-13 02:10:00,
2013-06-12 22:16:00,78.4,71.7,29.71,WNW,284,1.0,1.0,80,0.00,,,0.00,Wunderground v.1.15,2013-06-13 02:16:00,
2013-06-12 22:25:00,78.4,72.1,29.71,WNW,284,1.0,1.0,81,0.00,,,0.00,Wunderground v.1.15,2013-06-13 02:25:00,
2013-06-12 22:31:00,78.3,72.0,29.71,WNW,284,0.0,0.0,81,0.00,,,0.00,Wunderground v.1.15,2013-06-13 02:31:00,
2013-06-12 22:40:00,78.1,72.2,29.71,WNW,284,0.0,0.0,82,0.00,,,0.00,Wunderground v.1.15,2013-06-13 02:40:00,
2013-06-12 22:45:00,78.0,72.1,29.71,WNW,282,1.0,1.0,82,0.00,,,0.00,Wunderground v.1.15,2013-06-13 02:45:00,
2013-06-12 22:55:00,77.7,72.1,29.71,West,281,1.0,1.0,83,0.00,,,0.00,Wunderground v.1.15,2013-06-13 02:55:00,
2013-06-12 23:01:00,77.5,71.9,29.71,WNW,282,0.0,0.0,83,0.00,,,0.00,Wunderground v.1.15,2013-06-13 03:01:00,
2013-06-12 23:10:00,77.3,72.1,29.71,West,259,1.0,5.0,84,0.00,,,0.00,Wunderground v.1.15,2013-06-13 03:10:00,
2013-06-12 23:15:00,77.3,72.1,29.71,WNW,292,1.0,5.0,84,0.00,,,0.00,Wunderground v.1.15,2013-06-13 03:15:00,
2013-06-12 23:25:00,77.4,71.8,29.70,WSW,253,2.0,2.0,83,0.00,,,0.00,Wunderground v.1.15,2013-06-13 03:25:00,
2013-06-12 23:35:00,77.5,71.9,29.70,West,270,1.0,2.0,83,0.00,,,0.00,Wunderground v.1.15,2013-06-13 03:35:00,
2013-06-12 23:40:00,77.6,72.0,29.70,West,270,1.0,1.0,83,0.00,,,0.00,Wunderground v.1.15,2013-06-13 03:40:00,
2013-06-12 23:45:00,77.5,71.9,29.70,West,270,1.0,1.0,83,0.00,,,0.00,Wunderground v.1.15,2013-06-13 03:45:00,
2013-06-12 23:55:00,77.3,71.7,29.70,West,269,1.0,1.0,83,0.00,,,0.00,Wunderground v.1.15,2013-06-13 03:55:00,